星链-2422 (STARLINK-2422 )

导读 | 星芒AI

STARLINK-2422 是 SpaceX Starlink 项目中的一颗低轨通信卫星,属于第24批发射的星链卫星群。该卫星旨在为全球用户提供高速互联网服务,尤其关注网络覆盖不足的地区。它运行在约550公里高度的近地轨道,配备先进相控阵天线和激光通信技术,以实现高效数据传输和卫星间通信。作为星链星座的一部分,STARLINK-2422 有助于构建一个低延迟、高带宽的全球互联网网络。

基本信息
目录编号:
47832
目录名称:
STARLINK-2422
国际标识:
2021-018AX
轨道中心:
EARTH
卫星名称:
星链-2422
卫星全名:
星链-2422 (STARLINK-2422 )
卫星状态:
在轨 (已飞行1743 天)
发射日期:
2021-03-11 UTC
国别 :
美国 (US)
星等 :
--
轨道信息
数据来源 国际轨道数据
星历时间: 2025-12-17T11:47:22+0800
22小时前
查看轨道信息
半长轴: 6925.339km
偏心率: 0.0001693
轨道倾角: 53.054°
近地点辐角 85.806°
升交点赤经 262.118°
平近点角 274.312°
近地点: 546.031km
远地点: 548.377km
周期: 95.592分钟
每日圈数: 15.064032
详细信息
固有亮度:
5
最大亮度:
2.5
卫星平台:
Starlink V1.0
覆盖范围:
全球
运营商:
太空探索技术公司
运营商所在国:
美国
制造商(研发单位):
太空探索技术公司
制造商所在国:
美国
使用方式:
暂无
卫星简介
星链(Starlink)计划是由太空探索技术公司(SpaceX)提出的一个巨型低轨卫星互联网星座项目,计划在2019年至2024年间在太空搭建由约1.2万颗卫星组成的“星链”网络,其中1584颗将部署在地球上空550千米处的近地轨道,并从2020年开始工作。该卫星仍在工作。
2D轨道图
3D轨道图
轨道高度分析图
轨道倾角分析图
轨道综合分析图
查看轨道综合分析图